Theta_e
279 279 279 278 278 279 278 277 277 277 277 277 277 277 276 277 277 276 276 277 277 277 277 277 277 277 277 277 278 278 278 279 278 278 278 278 278 277 277 277 277 277
278 278 279 279 279 278 277 277 277 277 277 276 276 276 277 276 276 276 276 276 277 277 277 277 277 277 277 277 278 277 278 278 278 278 278 277 278 278 277 278 277 278
278 278 277 277 277 277 277 277 277 277 276 276 276 276 276 276 276 276 276 276 276 276 276 277 277 277 277 277 277 278 278 278 278 278 278 278 278 278 278 278 277 277
278 277 277 277 277 276 277 277 277 277 276 276 276 276 276 276 276 276 276 276 276 276 276 277 276 277 277 277 277 278 278 278 278 278 278 278 278 278 278 278 278 278
277 277 277 277 277 277 276 276 276 276 275 276 276 276 276 276 276 276 276 276 276 276 276 276 277 277 277 277 277 277 278 278 278 279 278 277 278 278 278 278 277 277
277 277 277 277 276 276 276 275 275 275 275 275 275 276 276 275 275 275 275 275 275 276 276 276 276 276 277 277 277 278 277 277 278 278 277 277 278 278 278 278 277 276
276 277 276 276 276 275 275 275 275 275 275 275 275 275 275 275 275 275 275 275 275 275 275 275 275 276 277 277 277 277 277 277 277 277 277 277 277 277 278 277 277 276
276 276 276 276 275 275 275 275 275 274 275 275 275 275 275 274 275 275 275 275 275 275 275 275 275 276 276 276 276 276 276 277 277 277 277 277 277 277 277 277 277 276
276 276 276 275 275 275 274 274 274 274 275 274 274 274 275 275 274 274 274 274 274 275 275 275 275 275 276 276 276 276 276 276 277 277 277 277 277 277 276 277 276 276
275 275 275 275 274 274 274 274 274 274 274 274 274 274 274 274 274 274 274 274 274 274 274 274 274 275 275 275 276 276 276 276 276 277 277 277 277 276 276 276 276 275
275 275 275 274 274 274 273 273 273 274 274 274 274 274 274 274 274 274 274 274 274 274 274 274 274 274 274 275 276 276 276 276 276 277 278 278 277 276 276 276 276 275
274 274 274 274 274 274 273 273 273 273 273 274 274 273 274 274 274 274 274 274 274 274 274 274 274 274 274 275 276 276 276 277 278 278 278 278 277 276 276 276 276 276
274 274 274 274 274 273 273 273 273 273 273 273 273 273 273 273 274 273 274 274 274 274 274 274 274 274 274 276 276 276 277 278 278 278 278 277 277 276 276 276 276 277
274 274 274 273 273 273 273 273 273 273 273 273 273 273 273 273 273 273 273 274 274 274 274 274 274 274 275 276 276 277 278 278 279 278 277 276 277 276 276 276 277 277
274 273 274 274 273 273 273 273 273 273 273 273 273 273 273 273 273 273 273 273 274 274 274 274 274 274 275 275 276 278 279 279 279 278 276 276 276 276 276 276 277 277
273 273 273 273 273 273 273 273 273 273 273 273 273 273 273 273 273 273 273 273 273 274 274 274 274 274 275 277 280 279 279 279 279 277 276 276 275 275 276 276 276 276
273 273 273 273 273 273 273 273 273 273 273 273 273 273 273 273 273 273 273 273 273 274 274 274 274 274 276 279 280 280 280 279 278 276 276 276 275 275 275 275 276 275
273 273 273 273 273 273 273 273 273 273 273 273 273 273 273 273 273 273 273 273 273 274 274 274 274 274 277 279 280 280 280 279 277 276 275 275 275 275 275 275 275 275
273 273 273 273 273 273 273 272 272 272 273 273 273 273 272 272 273 273 273 273 273 273 273 274 274 275 277 279 279 280 280 279 276 276 275 275 275 275 275 275 274 274
273 273 273 273 273 273 272 272 272 272 272 272 272 273 273 273 273 273 273 273 273 273 273 274 274 275 277 278 279 279 280 279 276 276 275 275 275 275 275 274 274 273
273 273 273 273 273 272 273 272 272 272 272 272 272 272 272 272 272 272 272 272 273 274 274 274 274 275 277 277 278 279 280 278 277 276 276 276 276 276 275 274 274 273
273 273 272 273 272 272 272 272 272 272 272 272 271 272 272 272 272 272 272 272 273 273 274 274 275 275 276 277 278 279 279 277 276 276 275 275 275 275 275 275 274 273
273 273 272 272 272 272 272 272 272 272 272 272 271 272 272 272 272 271 272 272 273 273 274 274 275 275 275 276 277 278 278 277 276 275 275 275 275 275 274 274 274 273
273 273 272 272 272 272 272 272 272 271 271 270 270 271 271 271 270 270 271 272 272 273 274 273 274 274 274 276 277 278 278 276 275 275 274 275 274 274 274 274 273 273
273 273 273 272 272 272 272 271 271 271 270 269 270 270 269 270 269 270 271 272 273 273 273 273 274 274 274 275 276 277 277 276 275 274 273 273 273 273 273 273 273 273
273 272 272 272 272 271 271 271 270 269 269 269 270 269 269 269 269 270 270 271 273 273 274 274 274 274 274 274 275 276 277 276 275 274 273 272 272 272 271 272 272 273
Wind_Speed
3 3 3 3 3 3 3 4 4 4 4 5 5 5 5 5 6 6 6 6 6 6 6 6 6 6 6 5 5 6 5 7 6 7 8 9 8 8 8 9 9 8
3 3 3 3 2 3 3 3 4 4 4 4 4 5 5 5 6 6 6 6 6 6 6 6 6 6 6 5 6 6 5 7 7 6 9 10 8 8 9 10 9 8
3 3 3 3 3 3 3 3 3 3 4 4 4 4 4 4 5 6 5 6 6 6 6 6 6 6 6 6 7 6 7 8 8 8 9 9 8 8 9 9 9 10
2 2 2 2 3 3 3 3 3 3 3 3 4 4 4 4 5 6 5 6 6 6 6 6 6 6 6 6 6 6 8 8 8 9 9 8 8 9 10 9 9 9
2 2 2 2 2 3 3 3 3 3 4 4 4 4 4 5 5 5 5 5 5 6 6 6 6 6 6 6 7 7 8 8 8 9 9 9 9 9 9 9 10 10
2 2 2 2 2 3 3 3 3 3 4 4 4 4 4 5 5 5 5 6 5 6 6 6 6 6 6 6 7 7 8 8 9 10 9 10 10 9 8 9 9 9
2 2 2 2 3 2 3 3 3 3 3 3 4 4 4 5 5 5 5 6 6 6 6 6 6 7 6 6 7 8 8 9 10 10 10 10 10 11 10 9 9 9
1 1 1 2 2 2 3 3 3 3 3 3 4 3 4 5 5 5 5 6 6 6 6 6 6 7 7 6 7 9 9 8 10 11 11 10 10 10 11 8 8 9
1 1 1 2 2 2 2 3 2 3 3 4 4 4 4 4 5 5 5 5 6 6 6 6 6 7 6 7 8 9 10 10 10 11 10 10 10 11 11 9 8 8
1 0 1 1 1 1 2 2 3 3 3 3 4 4 4 4 4 5 5 5 5 6 6 6 6 6 7 7 8 10 10 10 10 10 9 9 11 11 10 9 9 9
2 1 0 1 1 1 2 2 2 3 2 3 4 4 4 4 4 4 5 5 5 6 6 6 6 7 7 7 9 9 10 10 10 11 9 10 11 9 9 9 9 9
2 1 0 1 1 1 2 2 2 2 3 3 3 4 4 4 4 4 4 5 5 6 6 6 6 6 7 8 9 9 9 9 10 9 9 10 10 8 8 8 9 9
2 1 0 1 1 1 1 2 2 2 3 3 3 4 4 4 4 5 4 5 5 6 6 6 6 6 7 8 9 9 9 10 10 9 10 10 8 8 8 8 8 8
2 1 1 1 1 1 2 2 2 2 3 3 3 4 4 4 4 5 5 4 5 5 5 5 6 6 7 8 9 10 10 10 10 9 11 9 8 8 8 8 9 8
2 2 1 1 2 2 2 2 2 2 3 3 3 3 3 4 4 4 5 5 5 5 5 5 5 5 6 7 10 11 11 11 10 9 10 9 8 8 8 8 8 8
3 2 2 2 2 2 2 2 2 2 2 3 3 3 4 4 4 3 3 4 5 5 4 4 4 4 8 16 13 11 11 10 9 9 8 8 8 8 9 8 9 8
3 3 3 2 2 2 2 2 2 2 2 3 3 3 4 4 4 3 3 3 4 4 5 4 4 5 13 14 14 16 12 9 8 8 8 8 8 8 9 9 9 9
3 3 3 3 2 2 2 2 2 2 3 3 3 3 4 4 4 3 3 3 4 4 4 4 5 8 14 13 14 15 15 10 7 7 7 7 7 8 8 9 9 9
4 4 3 3 3 2 2 2 3 3 3 3 3 3 4 4 3 3 3 3 4 5 4 5 5 8 13 14 14 15 16 12 6 7 7 7 8 8 8 9 8 8
4 4 4 3 3 3 3 3 3 3 3 2 3 4 4 4 4 3 3 3 4 4 5 5 5 8 13 13 14 15 15 11 7 8 8 8 8 8 8 8 8 8
5 5 5 4 4 3 3 3 3 3 3 3 3 3 3 4 4 3 2 4 4 4 5 5 3 10 12 13 14 15 15 10 7 8 7 8 8 8 8 7 8 7
6 6 5 5 4 4 4 4 3 3 3 2 3 3 3 3 4 3 3 4 4 5 5 5 4 8 12 12 14 14 15 7 7 8 7 8 8 8 8 7 6 7
7 7 6 6 5 5 5 4 3 3 3 2 3 3 3 3 3 3 3 4 4 4 5 5 5 7 11 12 13 15 11 7 8 7 8 8 8 8 7 7 6 7
7 7 7 6 6 6 5 4 4 3 3 2 3 3 3 3 3 4 4 4 4 4 4 6 6 6 9 11 12 13 12 7 6 7 8 8 8 7 7 7 7 9
7 7 6 6 6 6 5 5 4 4 2 2 3 3 3 3 3 4 4 4 4 5 5 6 5 5 8 10 12 12 10 7 7 6 8 8 8 7 7 6 7 6
6 7 7 6 7 6 5 4 3 2 3 3 3 2 2 3 3 4 5 4 4 5 4 4 5 5 6 10 11 12 12 8 6 6 8 9 8 7 7 7 7 6
Wind_Direction
20 10 1 350 355 1 351 340 339 336 342 340 338 338 339 339 338 337 335 335 336 334 335 334 332 332 331 326 332 326 327 345 339 341 332 333 328 326 322 325 323 319
33 19 2 346 355 4 347 337 333 334 336 338 336 329 332 331 332 332 332 331 331 332 333 331 333 330 330 332 334 327 328 342 335 339 333 332 331 328 324 321 318 317
32 18 10 1 354 351 336 331 329 332 336 330 325 330 327 326 324 329 327 331 327 331 333 331 329 330 329 331 331 327 342 338 335 338 335 331 329 328 323 320 317 316
37 20 5 357 355 346 337 336 339 335 335 333 338 328 322 321 319 325 324 325 328 329 328 330 328 324 329 327 331 336 335 331 333 333 330 327 324 323 321 320 319 320
22 15 7 357 355 346 333 334 343 338 333 332 323 327 324 326 322 326 327 327 327 327 327 326 325 323 324 326 331 337 336 333 334 334 329 325 324 325 325 322 321 320
46 17 5 1 353 350 340 342 341 332 331 325 329 318 323 319 321 325 326 327 328 326 325 324 323 324 324 328 324 337 334 335 327 322 326 327 326 327 326 324 324 323
37 13 4 357 350 348 334 340 335 330 331 324 314 319 320 319 321 322 324 326 323 324 325 325 325 322 325 325 330 334 331 329 326 327 325 327 328 327 329 327 326 319
42 25 2 355 336 342 340 334 332 333 329 316 317 315 316 317 317 321 322 322 319 318 321 323 321 321 321 326 331 330 329 327 323 326 326 325 329 329 331 331 326 321
91 36 2 339 333 328 343 331 331 324 325 318 318 316 312 309 316 316 317 315 314 316 319 320 321 319 321 321 329 328 327 323 320 321 321 325 329 331 332 331 325 323
122 91 2 342 327 340 331 334 326 320 319 313 313 312 314 311 309 312 312 314 313 316 317 318 320 319 318 320 326 325 317 304 301 314 314 318 330 331 330 327 325 321
139 136 16 335 334 318 326 324 317 312 315 313 314 311 311 313 314 313 312 316 319 319 318 320 321 319 318 321 323 308 299 303 312 316 326 329 330 330 326 327 323 321
148 136 198 316 316 294 309 313 309 308 312 308 313 310 313 310 311 315 314 318 319 316 315 317 320 318 315 320 315 303 303 310 323 331 329 327 331 326 323 323 319 317
156 161 189 272 270 297 302 296 297 301 302 306 307 302 307 312 315 312 315 315 315 313 317 320 318 316 310 319 308 307 312 330 326 329 329 330 326 326 323 320 316 316
173 174 204 246 268 268 273 276 281 290 296 294 294 300 302 307 311 314 314 311 310 310 316 320 320 319 323 316 312 316 332 328 330 329 332 331 326 324 323 319 319 318
171 186 216 219 243 245 257 269 276 283 287 286 291 297 296 299 304 307 312 313 311 310 318 324 322 321 309 317 313 328 332 330 329 332 330 327 323 320 319 317 316 318
178 188 200 223 234 242 252 268 275 279 280 291 294 295 298 301 303 304 305 312 313 320 325 325 320 310 307 314 331 333 332 331 333 332 329 324 324 320 318 319 320 318
187 184 197 213 228 242 245 261 274 274 280 287 292 296 297 299 295 303 315 311 310 317 325 324 316 309 319 330 336 335 336 338 334 331 329 326 321 322 319 321 321 321
188 184 195 204 224 232 247 261 267 270 281 286 292 303 305 296 292 301 300 305 304 310 316 316 310 316 328 336 336 337 339 342 336 330 329 324 320 319 319 319 322 323
185 189 193 203 218 233 241 248 254 265 268 285 296 302 293 287 297 300 298 301 302 310 312 315 312 326 334 336 337 338 342 346 336 333 326 320 316 316 317 321 323 325
186 191 193 199 211 231 238 234 248 251 267 275 283 288 287 292 294 295 292 299 305 306 308 310 320 332 338 337 339 340 343 344 333 329 319 317 317 316 317 320 325 323
187 189 193 193 201 220 232 238 238 245 243 250 273 284 290 297 301 300 292 294 301 307 306 309 318 336 340 339 341 342 344 342 332 326 320 317 317 319 319 322 324 321
185 187 189 192 197 205 223 234 237 246 259 258 265 263 266 272 276 281 288 290 298 304 307 311 319 340 342 341 342 344 346 340 334 329 324 324 322 323 322 320 321 322
187 186 187 192 196 205 213 220 227 244 252 265 270 264 275 278 285 296 289 282 291 299 308 314 315 343 342 341 343 345 346 339 332 327 327 324 322 324 322 317 316 322
186 186 185 190 195 207 210 209 217 238 253 262 274 291 287 287 297 289 280 277 282 290 314 315 314 334 335 340 342 344 347 339 333 325 324 324 321 322 320 314 315 314
185 186 188 187 196 206 208 213 210 214 235 258 259 267 272 277 280 277 276 275 270 284 289 292 309 318 331 337 341 344 346 341 335 325 325 327 325 321 318 315 316 316
185 185 188 189 196 197 201 218 211 206 224 242 257 264 269 270 262 263 276 271 270 275 283 298 310 321 331 333 338 340 345 345 335 332 328 325 324 316 316 316 318 319